ISS DEB (44789 NORAD) Tracking and Keplerian Element Data

This shows tracking and keplerian element data for the satellite.

Feedback or suggestion? Click here.




ElementValue
Catalog44789
NameISS DEB
Epoch Orbit3589
Epoch Day185.61088727
Epoch Year2020
RAAN261.3909
Inclination51.6401
Eccentricity0.0006043
Argument of Perigee54.8939
Mean Anonmoly305.2618
Mean Motion15.55694489
Decay Rate9.316E-05
L11 44789U 98067QU 20185.61088727 .00009316 00000-0 13964-3 0 9992
L22 44789 51.6401 261.3909 0006043 54.8939 305.2618 15.55694489 35898

Live tracking and technical data element details for ISS DEB (NORAD 44789). ISS DEB can be tracked NOW for your location showing map with azimuth and elevation plus other details from your city location.

Track the satellite on the map from your city or location and see movement details for azimuth, elevation, latitude, longitude, range, height, and movement on the map or in text.







IsCatalogInMostPopularTable: catalog: 44789, numindb: 760
Update: records affected: 1



GetName: 44789 ISS DEB

Hit Count: updated at: Sun, 05 Jul 2020 16:18:43 GMT